This demonstration page uses our WeatherBlox Daily Observations layout. Learn more.

Hourly Observations for July 8, 2020

Temp ( °F °C ) Dew Point ( °F °C ) Humidity (%) Winds ( mph kmh ) Pressure ( in mb ) Visibility ( mi km ) Precip ( " mm )
12:53 am 00:53 Clear 74 23.3 70 21.1 88 88 Calm 29.98 1015 10 16.0934 0 0
1:53 am 01:53 Clear 72 22.2 69 20.6 91 91 Calm 29.97 1015 10 16.0934 0 0
2:53 am 02:53 Clear 72 22.2 68 20 87 87 Calm 29.96 1015 10 16.0934 0 0
3:53 am 03:53 Clear 71 21.7 69 20.6 94 94 Calm 29.95 1014 10 16.0934 0 0
4:53 am 04:53 Clear 70 21.1 68 20 93 93 Calm 29.93 1014 10 16.0934 0 0
5:53 am 05:53 Clear 68 20 67 19.4 96 96 Calm 29.95 1014 8 12.87472 0 0
6:53 am 06:53 Sunny with Mist and Fog 70 21.1 69 20.6 97 97 Calm 29.96 1014 6 9.65604 0 0
7:53 am 07:53 Sunny 76 24.4 70 21.1 82 82 Calm 29.97 1015 10 16.0934 0 0
8:53 am 08:53 Sunny 79 26.1 71 21.7 77 77 ESE 5 7 29.98 1015 10 16.0934 0 0
9:53 am 09:53 Sunny 82 27.8 72 22.2 72 72 Calm 29.99 1016 10 16.0934 0 0
10:53 am 10:53 Sunny 86 30 73 22.8 65 65 Calm 29.98 1015 10 16.0934 0 0
11:53 am 11:53 Sunny 88 31.1 72 22.2 59 59 Calm 29.98 1015 10 16.0934 0 0
12:53 pm 12:53 Sunny 87 30.6 73 22.8 63 63 Calm 29.97 1015 10 16.0934 0 0
1:53 pm 13:53 Partly Cloudy 91 32.8 70 21.1 50 50 E 6 9 29.95 1014 10 16.0934 0 0
2:53 pm 14:53 Sunny 92 33.3 69 20.6 47 47 W 3 6 29.92 1013 10 16.0934 0 0
3:53 pm 15:53 Mostly Cloudy 87 30.6 72 22.2 61 61 Calm 29.91 1013 10 16.0934 0 0
4:25 pm 16:25 Sunny with Thunderstorms 84 28.9 71 21.7 65 65 SSW 12 19 29.89 1012 10 16.0934 0 0
4:43 pm 16:43 Partly Cloudy with Light Rain 82 27.8 69 20.6 65 65 SSW 7 11 29.88 1012 10 16.0934 0.001 0.001
4:53 pm 16:53 Mostly Sunny 87 30.6 72 22.2 61 61 SSW 6 9 29.89 1012 10 16.0934 0.001 0.001
5:41 pm 17:41 Sunny with Nearby Thunderstorms 92 33.3 71 21.7 51 51 Calm 29.86 1011 10 16.0934 0 0
5:53 pm 17:53 Sunny with Nearby Thunderstorms 92 33.3 73 22.8 54 54 Calm 29.88 1012 10 16.0934 0 0
6:03 pm 18:03 Sunny 91 32.8 72 22.2 54 54 Calm 29.86 1011 10 16.0934 0 0
6:53 pm 18:53 Sunny with Nearby Thunderstorms 91 32.8 70 21.1 50 50 Calm 29.87 1012 10 16.0934 0 0
7:18 pm 19:18 Sunny 91 32.8 72 22.2 54 54 NNW 6 9 29.85 1011 10 16.0934 0 0
7:26 pm 19:26 Sunny with Nearby Thunderstorms 90 32.2 71 21.7 54 54 NNW 5 7 29.85 1011 10 16.0934 0 0
7:53 pm 19:53 Sunny with Nearby Thunderstorms 88 31.1 73 22.8 61 61 N 3 6 29.88 1012 10 16.0934 0 0
8:30 pm 20:30 Partly Cloudy 84 28.9 72 22.2 67 67 VRB 3 6 29.88 1012 10 16.0934 0 0
8:53 pm 20:53 Mostly Sunny 80 26.7 71 21.7 74 74 Calm 29.89 1012 10 16.0934 0 0
9:53 pm 21:53 Clear 80 26.7 72 22.2 76 76 W 6 9 29.9 1013 10 16.0934 0 0
10:53 pm 22:53 Clear 77 25 72 22.2 85 85 Calm 29.91 1013 10 16.0934 0 0
11:53 pm 23:53 Clear 75 23.9 71 21.7 88 88 Calm 29.92 1013 10 16.0934 0 0

Powered by AerisWeather